Time,TemperatureF,DewpointF,PressureIn,WindDirection,WindDirectionDegrees,WindSpeedMPH,WindSpeedGustMPH,Humidity,HourlyPrecipIn,Conditions,Clouds,dailyrainin,SoftwareType,DateUTC
2013-06-12 00:07:00,69.7,61.0,29.80,WSW,256,4.0,7.0,74,0.00,,,0.00,weatherlink.com 1.10,2013-06-12 04:07:00,
2013-06-12 00:20:00,69.2,61.0,29.81,WSW,248,1.0,4.0,75,0.00,,,0.00,weatherlink.com 1.10,2013-06-12 04:20:00,
2013-06-12 00:35:00,68.9,61.0,29.81,WSW,257,3.0,4.0,75,0.00,,,0.00,weatherlink.com 1.10,2013-06-12 04:35:00,
2013-06-12 00:50:00,68.3,60.0,29.81,West,259,0.0,2.0,76,0.00,,,0.00,weatherlink.com 1.10,2013-06-12 04:50:00,
2013-06-12 01:07:00,67.7,61.0,29.81,WSW,256,0.0,2.0,78,0.00,,,0.00,weatherlink.com 1.10,2013-06-12 05:07:00,
2013-06-12 01:20:00,66.5,61.0,29.80,WSW,256,0.0,1.0,81,0.00,,,0.00,weatherlink.com 1.10,2013-06-12 05:20:00,
2013-06-12 01:35:00,66.8,61.0,29.80,West,263,2.0,4.0,81,0.00,,,0.00,weatherlink.com 1.10,2013-06-12 05:35:00,
2013-06-12 01:50:00,66.8,61.0,29.80,WSW,249,1.0,4.0,81,0.00,,,0.00,weatherlink.com 1.10,2013-06-12 05:50:00,
2013-06-12 02:07:00,66.5,61.0,29.80,West,262,2.0,3.0,82,0.00,,,0.00,weatherlink.com 1.10,2013-06-12 06:07:00,
2013-06-12 02:20:00,66.6,61.0,29.80,West,264,0.0,3.0,82,0.00,,,0.00,weatherlink.com 1.10,2013-06-12 06:20:00,
2013-06-12 02:35:00,66.1,61.0,29.80,West,264,0.0,2.0,83,0.00,,,0.00,weatherlink.com 1.10,2013-06-12 06:35:00,
2013-06-12 02:50:00,65.2,61.0,29.81,West,264,0.0,0.0,85,0.00,,,0.00,weatherlink.com 1.10,2013-06-12 06:50:00,
2013-06-12 03:07:00,64.5,61.0,29.81,West,264,0.0,0.0,87,0.00,,,0.00,weatherlink.com 1.10,2013-06-12 07:07:00,
2013-06-12 03:20:00,64.0,60.0,29.81,West,264,0.0,0.0,88,0.00,,,0.00,weatherlink.com 1.10,2013-06-12 07:20:00,
2013-06-12 03:35:00,63.4,60.0,29.81,West,264,0.0,0.0,89,0.00,,,0.00,weatherlink.com 1.10,2013-06-12 07:35:00,
2013-06-12 03:50:00,62.6,60.0,29.82,West,264,0.0,0.0,92,0.00,,,0.00,weatherlink.com 1.10,2013-06-12 07:50:00,
2013-06-12 04:07:00,62.7,60.0,29.81,West,264,0.0,0.0,92,0.00,,,0.00,weatherlink.com 1.10,2013-06-12 08:07:00,
2013-06-12 04:20:00,62.5,60.0,29.81,West,264,0.0,1.0,92,0.00,,,0.00,weatherlink.com 1.10,2013-06-12 08:20:00,
2013-06-12 04:35:00,62.2,60.0,29.81,West,264,0.0,1.0,93,0.00,,,0.00,weatherlink.com 1.10,2013-06-12 08:35:00,
2013-06-12 04:50:00,62.0,60.0,29.81,West,264,0.0,0.0,93,0.00,,,0.00,weatherlink.com 1.10,2013-06-12 08:50:00,
2013-06-12 05:07:00,61.8,60.0,29.82,West,264,0.0,0.0,93,0.00,,,0.00,weatherlink.com 1.10,2013-06-12 09:07:00,
2013-06-12 05:20:00,61.1,59.0,29.82,West,264,2.0,2.0,94,0.00,,,0.00,weatherlink.com 1.10,2013-06-12 09:20:00,
2013-06-12 05:35:00,60.9,60.0,29.82,West,264,0.0,1.0,95,0.00,,,0.00,weatherlink.com 1.10,2013-06-12 09:35:00,
2013-06-12 05:50:00,61.1,60.0,29.83,West,264,0.0,1.0,95,0.00,,,0.00,weatherlink.com 1.10,2013-06-12 09:50:00,
2013-06-12 06:07:00,61.2,60.0,29.83,West,264,0.0,0.0,94,0.00,,,0.00,weatherlink.com 1.10,2013-06-12 10:07:00,
2013-06-12 06:20:00,61.3,60.0,29.83,West,264,0.0,1.0,94,0.00,,,0.00,weatherlink.com 1.10,2013-06-12 10:20:00,
2013-06-12 06:36:00,62.6,61.0,29.84,West,264,0.0,1.0,94,0.00,,,0.00,weatherlink.com 1.10,2013-06-12 10:36:00,
2013-06-12 06:51:00,64.0,61.0,29.84,West,264,0.0,1.0,91,0.00,,,0.00,weatherlink.com 1.10,2013-06-12 10:51:00,
2013-06-12 07:08:00,64.7,63.0,29.84,West,264,0.0,0.0,93,0.00,,,0.00,weatherlink.com 1.10,2013-06-12 11:08:00,
2013-06-12 07:21:00,66.2,63.0,29.84,West,264,0.0,0.0,90,0.00,,,0.00,weatherlink.com 1.10,2013-06-12 11:21:00,
2013-06-12 07:36:00,67.6,63.0,29.85,West,264,2.0,3.0,86,0.00,,,0.00,weatherlink.com 1.10,2013-06-12 11:36:00,
2013-06-12 07:51:00,68.5,64.0,29.85,WSW,250,2.0,3.0,85,0.00,,,0.00,weatherlink.com 1.10,2013-06-12 11:51:00,
2013-06-12 08:08:00,69.6,65.0,29.84,NNW,332,4.0,6.0,85,0.00,,,0.00,weatherlink.com 1.10,2013-06-12 12:08:00,
2013-06-12 08:21:00,70.8,64.0,29.84,NW,321,3.0,9.0,78,0.00,,,0.00,weatherlink.com 1.10,2013-06-12 12:21:00,
2013-06-12 08:36:00,71.8,64.0,29.85,WNW,298,4.0,10.0,77,0.00,,,0.00,weatherlink.com 1.10,2013-06-12 12:36:00,
2013-06-12 08:51:00,72.5,65.0,29.85,NW,311,1.0,9.0,76,0.00,,,0.00,weatherlink.com 1.10,2013-06-12 12:51:00,
2013-06-12 09:08:00,73.0,64.0,29.85,NW,320,4.0,11.0,74,0.00,,,0.00,weatherlink.com 1.10,2013-06-12 13:08:00,
2013-06-12 09:21:00,73.8,61.0,29.85,NW,315,9.0,13.0,65,0.00,,,0.00,weatherlink.com 1.10,2013-06-12 13:21:00,
2013-06-12 09:36:00,74.0,62.0,29.85,NW,314,6.0,12.0,66,0.00,,,0.00,weatherlink.com 1.10,2013-06-12 13:36:00,
2013-06-12 09:51:00,73.9,60.0,29.84,NW,321,5.0,14.0,63,0.00,,,0.00,weatherlink.com 1.10,2013-06-12 13:51:00,
2013-06-12 10:08:00,73.9,61.0,29.84,NW,320,8.0,14.0,64,0.00,,,0.00,weatherlink.com 1.10,2013-06-12 14:08:00,
2013-06-12 10:21:00,74.6,61.0,29.84,NNW,338,6.0,14.0,63,0.00,,,0.00,weatherlink.com 1.10,2013-06-12 14:21:00,
2013-06-12 10:36:00,74.8,63.0,29.84,North,360,5.0,11.0,67,0.00,,,0.00,weatherlink.com 1.10,2013-06-12 14:36:00,
2013-06-12 10:51:00,75.5,63.0,29.84,NW,313,5.0,10.0,65,0.00,,,0.00,weatherlink.com 1.10,2013-06-12 14:51:00,
2013-06-12 11:08:00,75.4,62.0,29.84,NNE,12,7.0,11.0,64,0.00,,,0.00,weatherlink.com 1.10,2013-06-12 15:08:00,
2013-06-12 11:21:00,75.8,64.0,29.84,West,263,3.0,10.0,67,0.00,,,0.00,weatherlink.com 1.10,2013-06-12 15:21:00,
2013-06-12 11:36:00,76.5,65.0,29.84,NW,308,14.0,17.0,67,0.00,,,0.00,weatherlink.com 1.10,2013-06-12 15:36:00,
2013-06-12 11:51:00,76.2,64.0,29.84,NW,307,9.0,15.0,65,0.00,,,0.00,weatherlink.com 1.10,2013-06-12 15:51:00,
2013-06-12 12:08:00,76.9,64.0,29.85,NW,311,7.0,14.0,64,0.00,,,0.00,weatherlink.com 1.10,2013-06-12 16:08:00,
2013-06-12 12:21:00,77.0,63.0,29.85,NW,309,14.0,18.0,62,0.00,,,0.00,weatherlink.com 1.10,2013-06-12 16:21:00,
2013-06-12 12:36:00,77.4,62.0,29.85,NW,315,11.0,18.0,60,0.00,,,0.00,weatherlink.com 1.10,2013-06-12 16:36:00,
2013-06-12 12:51:00,78.4,64.0,29.85,WNW,299,1.0,10.0,62,0.00,,,0.00,weatherlink.com 1.10,2013-06-12 16:51:00,
2013-06-12 13:06:00,77.6,63.0,29.85,NW,308,6.0,13.0,60,0.00,,,0.00,weatherlink.com 1.10,2013-06-12 17:06:00,
2013-06-12 13:21:00,78.4,65.0,29.84,North,355,12.0,14.0,63,0.00,,,0.00,weatherlink.com 1.10,2013-06-12 17:21:00,
2013-06-12 13:39:00,78.6,64.0,29.85,West,269,9.0,19.0,61,0.00,,,0.00,weatherlink.com 1.10,2013-06-12 17:39:00,
2013-06-12 13:52:00,79.0,64.0,29.85,WNW,297,8.0,13.0,60,0.00,,,0.00,weatherlink.com 1.10,2013-06-12 17:52:00,
2013-06-12 14:07:00,79.4,63.0,29.84,NW,322,9.0,14.0,57,0.00,,,0.00,weatherlink.com 1.10,2013-06-12 18:07:00,
2013-06-12 14:22:00,79.8,64.0,29.83,NW,324,9.0,17.0,58,0.00,,,0.00,weatherlink.com 1.10,2013-06-12 18:22:00,
2013-06-12 14:40:00,79.5,63.0,29.83,NNW,333,9.0,14.0,57,0.00,,,0.00,weatherlink.com 1.10,2013-06-12 18:40:00,
2013-06-12 14:51:00,79.3,63.0,29.83,NW,323,5.0,12.0,58,0.00,,,0.00,weatherlink.com 1.10,2013-06-12 18:51:00,
2013-06-12 15:06:00,79.7,64.0,29.82,WNW,291,8.0,12.0,59,0.00,,,0.00,weatherlink.com 1.10,2013-06-12 19:06:00,
2013-06-12 15:21:00,79.3,63.0,29.82,NW,322,1.0,10.0,58,0.00,,,0.00,weatherlink.com 1.10,2013-06-12 19:21:00,
2013-06-12 15:39:00,79.6,62.0,29.82,NNW,334,5.0,13.0,55,0.00,,,0.00,weatherlink.com 1.10,2013-06-12 19:39:00,
2013-06-12 15:52:00,79.8,63.0,29.82,WSW,255,5.0,13.0,56,0.00,,,0.00,weatherlink.com 1.10,2013-06-12 19:52:00,
2013-06-12 16:07:00,80.1,61.0,29.82,WNW,301,4.0,14.0,53,0.00,,,0.00,weatherlink.com 1.10,2013-06-12 20:07:00,
2013-06-12 16:22:00,80.2,63.0,29.82,WNW,292,4.0,11.0,57,0.00,,,0.00,weatherlink.com 1.10,2013-06-12 20:22:00,
2013-06-12 16:39:00,80.5,62.0,29.82,West,260,4.0,14.0,54,0.00,,,0.00,weatherlink.com 1.10,2013-06-12 20:39:00,
2013-06-12 16:52:00,79.9,62.0,29.81,WNW,283,6.0,10.0,55,0.00,,,0.00,weatherlink.com 1.10,2013-06-12 20:52:00,
2013-06-12 17:07:00,79.3,63.0,29.81,NW,317,0.0,13.0,58,0.00,,,0.00,weatherlink.com 1.10,2013-06-12 21:07:00,
2013-06-12 17:22:00,79.6,63.0,29.82,NW,306,8.0,8.0,57,0.00,,,0.00,weatherlink.com 1.10,2013-06-12 21:22:00,
2013-06-12 17:39:00,79.7,64.0,29.81,WNW,296,4.0,6.0,58,0.00,,,0.00,weatherlink.com 1.10,2013-06-12 21:39:00,
2013-06-12 17:52:00,80.1,64.0,29.81,NW,319,0.0,5.0,58,0.00,,,0.00,weatherlink.com 1.10,2013-06-12 21:52:00,
2013-06-12 18:07:00,79.5,63.0,29.80,NW,314,8.0,8.0,57,0.00,,,0.00,weatherlink.com 1.10,2013-06-12 22:07:00,
2013-06-12 18:22:00,79.6,63.0,29.80,NNW,342,2.0,8.0,58,0.00,,,0.00,weatherlink.com 1.10,2013-06-12 22:22:00,
2013-06-12 18:37:00,79.7,63.0,29.80,North,350,1.0,8.0,57,0.00,,,0.00,weatherlink.com 1.10,2013-06-12 22:37:00,
2013-06-12 18:52:00,79.2,63.0,29.80,WNW,284,0.0,5.0,57,0.00,,,0.00,weatherlink.com 1.10,2013-06-12 22:52:00,
2013-06-12 19:09:00,79.3,64.0,29.80,NNW,333,2.0,4.0,59,0.00,,,0.00,weatherlink.com 1.10,2013-06-12 23:09:00,
2013-06-12 19:22:00,78.7,64.0,29.81,NW,317,3.0,4.0,60,0.00,,,0.00,weatherlink.com 1.10,2013-06-12 23:22:00,
2013-06-12 19:37:00,77.7,65.0,29.83,West,275,1.0,3.0,64,0.00,,,0.00,weatherlink.com 1.10,2013-06-12 23:37:00,
2013-06-12 19:52:00,77.7,66.0,29.83,WNW,296,0.0,2.0,67,0.00,,,0.00,weatherlink.com 1.10,2013-06-12 23:52:00,
2013-06-12 20:09:00,77.2,65.0,29.82,WNW,296,0.0,0.0,67,0.00,,,0.00,weatherlink.com 1.10,2013-06-13 00:09:00,
2013-06-12 20:21:00,76.4,65.0,29.82,WNW,296,0.0,1.0,67,0.00,,,0.00,weatherlink.com 1.10,2013-06-13 00:21:00,
2013-06-12 20:36:00,75.4,67.0,29.82,WNW,302,0.0,1.0,74,0.00,,,0.00,weatherlink.com 1.10,2013-06-13 00:36:00,
2013-06-12 20:51:00,74.6,66.0,29.82,WNW,302,0.0,1.0,75,0.00,,,0.00,weatherlink.com 1.10,2013-06-13 00:51:00,
2013-06-12 21:09:00,74.2,66.0,29.81,NW,324,0.0,2.0,75,0.00,,,0.00,weatherlink.com 1.10,2013-06-13 01:09:00,
2013-06-12 21:22:00,73.7,66.0,29.82,NNE,24,0.0,2.0,76,0.00,,,0.00,weatherlink.com 1.10,2013-06-13 01:22:00,
2013-06-12 21:37:00,73.1,66.0,29.83,NNE,24,0.0,1.0,79,0.00,,,0.00,weatherlink.com 1.10,2013-06-13 01:37:00,
2013-06-12 21:52:00,72.9,66.0,29.82,East,82,1.0,2.0,79,0.00,,,0.00,weatherlink.com 1.10,2013-06-13 01:52:00,
2013-06-12 22:09:00,72.5,65.0,29.82,ENE,76,0.0,2.0,78,0.00,,,0.00,weatherlink.com 1.10,2013-06-13 02:09:00,
2013-06-12 22:22:00,72.5,65.0,29.82,ESE,103,0.0,4.0,77,0.00,,,0.00,weatherlink.com 1.10,2013-06-13 02:22:00,
2013-06-12 22:37:00,72.3,65.0,29.84,ESE,107,0.0,1.0,77,0.00,,,0.00,weatherlink.com 1.10,2013-06-13 02:37:00,
2013-06-12 22:52:00,72.0,64.0,29.83,East,89,0.0,3.0,76,0.00,,,0.00,weatherlink.com 1.10,2013-06-13 02:52:00,
2013-06-12 23:09:00,71.7,64.0,29.83,East,88,1.0,2.0,76,0.00,,,0.00,weatherlink.com 1.10,2013-06-13 03:09:00,
2013-06-12 23:22:00,71.5,63.0,29.83,East,84,0.0,3.0,75,0.00,,,0.00,weatherlink.com 1.10,2013-06-13 03:22:00,
2013-06-12 23:37:00,71.5,64.0,29.82,East,84,2.0,3.0,77,0.00,,,0.00,weatherlink.com 1.10,2013-06-13 03:37:00,
2013-06-12 23:52:00,71.2,63.0,29.82,East,84,0.0,1.0,76,0.00,,,0.00,weatherlink.com 1.10,2013-06-13 03:52:00,